Hourly Data Report for September 12, 2017

All times are specified in Local Standard Time (LST). Add 1 hour to adjust for Daylight Saving Time where and when it is observed.

WINNIPEG A CS
MANITOBA

49°55'00.000" N
97°14'58.000" W
238.70 m
502S001
71849
XWG

Download Data

Hourly Data (September 2017)
Hourly Data Report for September 12, 2017
Temp Definition
°C
Dew Point Temp Definition
°C
Rel Hum Definition
%
Wind Dir Definition
10's deg

Wind Spd Definition
km/h
Visibility Definition
km
Stn Press Definition
kPa
Hmdx Definition


Wind Chill Definition


Weather Definition


TIME
00:00 18.5 3.0 35 19 23   98.33     LegendNANA
01:00 17.5 3.6 39 19 23   98.30     LegendNANA
02:00 17.5 4.3 42 19 22   98.24     LegendNANA
03:00 16.7 4.8 45 18 20   98.20     LegendNANA
04:00 16.1 5.5 49 19 21   98.14     LegendNANA
05:00 15.4 6.2 54 18 19   98.11     LegendNANA
06:00 14.4 6.6 60 18 16   98.08     LegendNANA
07:00 14.9 7.4 60 17 14   98.04     LegendNANA
08:00 17.5 9.2 58 18 13   97.99     LegendNANA
09:00 20.5 10.8 54 19 19   97.96     LegendNANA
10:00 23.8 11.4 46 18 16   97.92 26   LegendNANA
11:00 26.7 11.2 38 21 14   97.89 29   LegendNANA
12:00 29.3 11.4 33 19 18   97.81 31   LegendNANA
13:00 32.2 10.2 26 20 21   97.72 34   LegendNANA
14:00 33.6 8.8 22 21 22   97.65 34   LegendNANA
15:00 34.4 5.5 17 23 19   97.59 34   LegendNANA
16:00 34.2 4.0 15 25 16   97.55 33   LegendNANA
17:00 31.8 6.4 20 29 10   97.52 32   LegendNANA
18:00 27.3 7.5 29 32 12   97.54 28   LegendNANA
19:00 22.5 7.9 39 35 11   97.58     LegendNANA
20:00 18.8 8.5 51 35 6   97.63     LegendNANA
21:00 14.6 7.9 64 34 8   97.64     LegendNANA
22:00 15.0 9.3 69 34 14   97.66     LegendNANA
23:00 18.7 11.5 63 2 15   97.70     LegendNANA

Notes on Data Quality.

Legend

  • E = Estimated
  • M = Missing
  • NA = Not Available
  • ‡ = Partner data that is not subject to review by the National Climate Archives
Date modified: